User: anonymous   Login
Location: Recife
(8.0585°S, 34.8848°W)
Time: 12:28:33
(UTC-03:00)
Language:

Courier 1B Rocket - Orbit

View from above orbital plane
View from above orbital plane
View from above satellite
View from above satellite

Ground track
Ground track

The orbit is defined by the following mean orbital elements,

1 00059U          26104.25490231 +.00000000 +00000-0 +23426-4 0 00007
2 00059  28.2474  92.0286 0189019 139.0816 222.4082 13.53167091    02
Epoch (UTC): 14 April 2026 06:07:03
Eccentricity: 0.0189019
inclination: 28.2474°
perigee height: 920 km
apogee height: 1201 km
right ascension of ascending node: 92.0286°
argument of perigee: 139.0816°
revolutions per day: 13.53167091
mean anomaly at epoch: 222.4082°

The dashed part of the orbit path shows where the satellite is in the earth's shadow,  

DLR